Regional Weather Roundup
Issued by NWS

Home | Current Version | Previous Version | Graphics & Text | Print | Product List | Glossary On
Versions: 1 2 3 4 5 6 7 8 9 10 11 12 13 14 15 16 17 18 19 20 21 22 23 24 25 26 27 28 29 30 31 32 33 34 35 36 37 38 39 40 41 42 43 44 45 46 47 48 49 50
000
ASUS45 KBOU 300410
RWRCO

WEATHER ROUNDUP FOR COLORADO
NATIONAL WEATHER SERVICE DENVER/BOULDER CO
1000 PM MDT WED JUL 29 2015

NOTE: "FAIR" INDICATES FEW OR NO CLOUDS BELOW 12000 FEET WITH NO
SIGNIFICANT WEATHER AND/OR OBSTRUCTIONS TO VISIBILITY.

COZ001>005-013-030-031-300500-
...NORTHWEST COLORADO...

CITY           SKY/WX    TMP DP  RH WIND       PRES   REMARKS
CRAIG          PTCLDY    58  26  29 CALM      30.35R
HAYDEN         PTCLDY    64  25  22 CALM      30.37R
MEEKER         PTCLDY    62  32  32 CALM      30.35R
MOUNT WERNER   NOT AVBL
STEAMBOAT SPGS PTCLDY    61  28  29 CALM      30.40R
WALDEN         CLEAR     59  23  25 NW6       30.48R
$$

COZ006>008-011-300500-
...WEST CENTRAL VALLEYS...

CITY           SKY/WX    TMP DP  RH WIND       PRES   REMARKS
GRAND JUNCTION PTCLDY    75  25  15 S7        30.19R
MONTROSE       PTCLDY    70  39  32 SE9       30.28R
EAGLE          PTCLDY    68  36  30 CALM      30.37R
RIFLE          PTCLDY    75  25  15 W6        30.27R
DELTA          PTCLDY    75  31  19 NE7       30.22R
NUCLA          PTCLDY    70  27  19 E9        30.32R
$$

COZ017>023-064>068-300500-
...SOUTHWEST COLORADO...

CITY           SKY/WX    TMP DP  RH WIND       PRES   REMARKS
DURANGO        MOCLDY    64  48  56 SE5       30.39R
CORTEZ         CLEAR     65  46  50 CALM      30.30R
PAGOSA SPRINGS MOCLDY    59  47  63 CALM      30.47R
TELLURIDE      PTCLDY    62  33  33 SE3       30.56R
WOLF CREEK PAS NOT AVBL
$$

COZ009-010-012-014-032>034-037-058>063-300500-
...CENTRAL COLORADO...

CITY           SKY/WX    TMP DP  RH WIND       PRES   REMARKS
ASPEN          PTCLDY    58  38  47 S9        30.44R
BUENA VISTA    LGT RAIN  55  51  89 CALM      30.53R
COPPER MTN     MOCLDY    54  23  30 W5        30.78R
BERTHOUD PASS  FAIR      43  34  70 N9        30.83R
COTTONWOOD PAS CLOUDY    55  48  76 E6        30.64R
GUNNISON       PTCLDY    64  37  36 N5        30.45R
KREMMLING      MOCLDY    59  25  27 CALM      30.44R
LEADVILLE      PTCLDY    54  47  77 S9        30.61R
MONARCH PASS   FOG       46  45  93 NE3       30.88R VSB<1/4
SALIDA         MOCLDY    68  50  52 E7        30.56R
SUNLIGHT       MOCLDY    59  23  25 W3        30.70R
WILKERSON PASS CLOUDY    48  45  87 SW9       30.76R
$$

COZ069>075-300500-
...SAN LUIS VALLEY/SANGRE DE CRISTO MOUNTAINS...

CITY           SKY/WX    TMP DP  RH WIND       PRES   REMARKS
ALAMOSA        CLOUDY    58  50  75 S7        30.46R
LA VETA PASS   CLOUDY    54  41  62 MISG      30.65R
SAGUACHE       PTCLDY    57  50  77 SE6       30.52R
$$

COZ035-036-038>040-300500-
...NORTHERN COLORADO FRONT RANGE...

CITY           SKY/WX    TMP DP  RH WIND       PRES   REMARKS
DENVER INTL AP MOCLDY    68  48  48 SE14      30.29R
DMNS CITY PARK   N/A     73  49  43 S10       30.28R
AURORA         NOT AVBL
FRONT RANGE AP NOT AVBL
ERIE MUNI ARPT PTCLDY    69  54  57 CALM      30.26R
BOULDER MUN AP PTCLDY    72  52  49 CALM      30.27R
CENTENNIAL     MOCLDY    69  51  52 S12       30.33R
BROOMFIELD     MOCLDY    72  54  53 W5        30.30R
FORT COLLINS   CLEAR     73  50  43 SE7       30.26R
LONGMONT       CLEAR     72  54  52 CALM      30.27R
$$

COZ041-046-047-076>085-087-088-300500-
...PIKES PEAK/PALMER DIVIDE AND SOUTHERN FOOTHILLS...

CITY           SKY/WX    TMP DP  RH WIND       PRES   REMARKS
COLO. SPRINGS  MOCLDY    69  47  45 SE12      30.39R
A. F. ACADEMY  MOCLDY    65  50  58 SE7       30.40R
ELLICOTT       MOCLDY   N/A N/A N/A S8        30.38R
FALCON         MOCLDY    62  47  58 S7        30.44R
FORT CARSON    NOT AVBL
LIMON          PTCLDY    60  50  69 SE6       30.35R
MONUMENT HILL  NOT AVBL
TRINIDAD       CLOUDY    63  53  70 SW17G25   30.36R
$$

COZ042>045-048>051-090-091-300500-
...NORTHEAST COLORADO...

CITY           SKY/WX    TMP DP  RH WIND       PRES   REMARKS
GREELEY ARPT   CLEAR     73  46  38 SE9       30.26R
AKRON          PTCLDY    64  47  53 SE12      30.31R
BURLINGTON     PTCLDY    64  52  64 SE7       30.31R
WRAY           CLEAR     68  45  43 SE12      30.28R
STERLING       PTCLDY    70  45  40 S10       30.25R
HOLYOKE        CLEAR     61  52  72 S8        30.28R
FORT MORGAN    PTCLDY    67  45  44 SE10      30.28R
$$

COZ086-089-092>099-300500-
...SOUTHEAST COLORADO...

CITY           SKY/WX    TMP DP  RH WIND       PRES   REMARKS
PUEBLO         PTCLDY    76  52  43 SE6       30.27R
LA JUNTA       CLOUDY    77  57  50 E3        30.27R
LAMAR          MOCLDY    73  59  61 E12       30.25R
SPRINGFIELD      N/A     69  64  84 E12       30.31R
$$



USA.gov is the U.S. government's official web portal to all federal, state and local government web resources and services.